Showing default

HULIANWANG DIGUI-185, 100210

Orbit data source: Space-Track

HULIANWANG DIGUI-185, 100210 is a payload satellite owned by Zhongguo Xingwang (CN) in LEO that was launched on Tue, 04 Aug 2026 UTC launched from the Wenchang Satellite Launch Center (WSC). Payload-class satellites include a variety of spacecraft equipped with specific instruments for various scientific and technological missions. These include communications satellites like Starlink; space stations such as the ISS; scientific satellites like the Hubble; Earth observation satellites from companies like Planet Labs, Umbra, and HawkEye 360; GPS; miniature CubeSats for education and research; and military/defense satellites.

Loading next visibility...
Identifier
100210, 2026-176H
Orbit
LEO
Country
Flag of CNCN / PRC
Related business
Manufacturer
CAST?
Mission
Operational spacecraft
Bus & Motor
XINGWANG C, Unknown motor
Mass
~700 kg wet, ~700 kg dry
Launch date (UTC)
2026-08-04 (2 months ago)
Launch vehicle
Unknown
Launch site
Wenchang Satellite Launch Center (WSC)
Object type
Payload
Rocket body
Debris
Shape & HBR
BOX + 2 PAN, 14.5 m
Radar Cross Section
Large (>1 m²)

Expand to show TLE details & history
Last TLE update: 12 hours ago

TLE from 12 hours ago
0 HULIANWANG DIGUI-185
1 A0210U 26176H   26263.58620832 -.00000094  00000-0  64227-4 0  9997
2 A0210  49.9939 223.4484 0000296  25.8356 334.2530 13.29328119  6310
Epoch: 2026-09-20T14:04Z
TLE epoch observation values (Epoch: 2026-09-20T14:04:08.398Z)
Latitude
-0.00009°
Longitude
12.93507°
Altitude
1,149.603 km
Speed
7.279 km/s
True Right ascension
14h 53m 47s
True Declination
0° 00' 00"
Sunlit
Object was in daylight at epoch
Visualization orbit readout
Latitude
Unknown
Longitude
Unknown
Altitude
Unknown
Speed
Unknown
Apparent Right ascension
Unknown
Apparent Declination
Unknown
Sunlit
N/A
Visualization observer readout
Local Sidereal Time
19:10:45
Azimuth
Unknown
Elevation
Unknown
Doppler factor
Unknown
Orbital elements
Apogee altitude
1,150.228 km
Perigee altitude
1,149.782 km
Semi-major axis
7,528.142 km
Eccentricity
0.00003
Inclination
49.9939°
RAAN
223.4484°
Arg. of periapsis
25.8356°
True anomaly
334.25153°
Mean anomaly
334.253°
Eccentric anomaly
334.25226°
Mean motion
3.32286 °/min
Orbital period
108.34 mins
BSTAR
0.000064227
Loading maneuver chart data...
Computing Atmospheric mass density...
Loading historical data...
Loading historical data...
Loading historical data...
Loading historical data...
Loading historical data...
Loading historical data...
Loading historical data...

Documentation

Showing up to 5 results
|